This demonstration page uses our WeatherBlox Daily Observations layout. Learn more.

41.55636, -103.73856

Hourly Observations for January 24, 2018

Temp ( °F °C ) Dew Point ( °F °C ) Humidity (%) Winds ( mph kmh ) Pressure ( in mb ) Visibility ( mi km ) Precip ( " mm )
12:53 am 00:53 Clear 9 -12.8 5 -15 84 84 E 6 9 30.36 1028 10 16.09344 0 0
1:53 am 01:53 Clear 11 -11.7 7 -13.9 84 84 Calm 30.3 1026 10 16.09344 0 0
2:53 am 02:53 Clear 11 -11.7 6 -14.4 81 81 Calm 30.3 1026 10 16.09344 0 0
3:53 am 03:53 Clear 17 -8.3 11 -11.7 77 77 Calm 30.27 1025 10 16.09344 0 0
4:53 am 04:53 Clear 11 -11.7 7 -13.9 84 84 E 6 9 30.27 1025 10 16.09344 0 0
5:53 am 05:53 Clear 10 -12.2 6 -14.4 84 84 E 6 9 30.27 1025 10 16.09344 0 0
6:53 am 06:53 Clear 12 -11.1 7 -13.9 80 80 E 3 6 30.27 1025 10 16.09344 0 0
7:53 am 07:53 Sunny 16 -8.9 9 -12.8 74 74 E 5 7 30.27 1025 10 16.09344 0 0
8:53 am 08:53 Sunny 21 -6.1 14 -10 74 74 ENE 5 7 30.24 1024 10 16.09344 0 0
9:53 am 09:53 Sunny 28 -2.2 17 -8.3 63 63 Calm 30.24 1024 10 16.09344 0 0
10:53 am 10:53 Sunny 30 -1.1 19 -7.2 64 64 E 5 7 30.24 1024 10 16.09344 0 0
11:53 am 11:53 Sunny 42 5.6 22 -5.6 45 45 Calm 30.15 1021 10 16.09344 0 0
12:53 pm 12:53 Sunny 46 7.8 23 -5 40 40 W 20 31 30.12 1020 10 16.09344 0 0
1:53 pm 13:53 Sunny 46 7.8 24 -4.4 42 42 W 18 30 30.09 1019 10 16.09344 0 0
2:53 pm 14:53 Sunny 46 7.8 24 -4.4 42 42 W 18 30 30.12 1020 10 16.09344 0 0
3:53 pm 15:53 Sunny 45 7.2 26 -3.3 48 48 WNW 12 19 30.09 1019 10 16.09344 0 0
4:53 pm 16:53 Sunny 41 5 26 -3.3 55 55 W 9 15 30.15 1021 10 16.09344 0 0
5:53 pm 17:53 Clear 40 4.4 24 -4.4 53 53 W 10 17 30.15 1021 10 16.09344 0 0
6:53 pm 18:53 Clear 35 1.7 25 -3.9 67 67 SW 9 15 30.15 1021 10 16.09344 0 0
7:53 pm 19:53 Clear 32 0 22 -5.6 66 66 NNW 7 11 30.15 1021 10 16.09344 0 0
8:53 pm 20:53 Clear 33 0.6 21 -6.1 61 61 NNW 8 13 30.12 1020 10 16.09344 0 0
9:53 pm 21:53 Clear 32 0 21 -6.1 64 64 S 3 6 30.09 1019 10 16.09344 0 0
10:53 pm 22:53 Clear 28 -2.2 23 -5 81 81 Calm 30.09 1019 10 16.09344 0 0
11:53 pm 23:53 Clear 29 -1.7 23 -5 78 78 S 5 7 30.03 1017 10 16.09344 0 0

Powered by AerisWeather